Wind_Speed
8 9 9 10 9 10 8 5 4 3 5 6 10 8 10 8 4 5 5 3 2 4 5 7 9 10 10 11 15 16 16 13 9 5 5 10 19 18 15 14 12 12 12 12 13 14 14 14 13 12 11 10 9 7 8 9 9 11 13 14 13 12 13 14 16 15 14 12 11 11 11 9 9 10 11 11 12 12 12 11 9 9 10 11 11 12 11 11 11 10 10 10 10 10 12 13 14
9 12 11 10 9 8 5 4 5 4 7 7 9 9 11 2 4 6 3 7 6 8 6 6 8 11 10 12 14 16 17 15 14 10 9 16 19 16 16 14 13 13 11 12 13 13 13 15 14 12 12 11 11 8 8 9 9 11 13 14 13 12 13 14 16 15 13 12 11 11 11 9 9 9 10 10 11 12 11 10 9 9 10 10 11 12 11 11 10 10 10 10 10 10 12 13 13
11 13 11 8 7 7 4 4 6 6 7 7 8 10 9 3 3 9 6 13 12 11 7 7 8 9 4 12 15 14 13 12 15 12 11 17 14 13 14 13 15 14 12 13 13 12 13 16 14 13 13 12 12 10 9 10 10 11 13 14 13 12 13 14 15 15 13 13 11 11 10 9 9 9 9 10 11 12 11 10 10 10 10 11 11 11 11 10 10 9 10 10 10 10 11 12 13
11 12 11 8 6 6 5 5 6 7 8 7 8 6 8 4 3 7 13 15 12 10 8 8 8 12 8 14 13 12 12 10 14 11 8 14 16 16 14 13 15 14 14 14 13 12 15 17 16 14 13 13 12 10 9 10 10 11 12 13 13 12 13 14 15 15 13 13 12 12 10 9 10 9 10 10 11 12 11 10 11 11 11 11 11 11 10 10 9 9 10 10 10 10 11 12 12
11 11 12 10 4 3 4 5 6 7 8 8 7 3 4 5 11 16 13 12 10 8 9 7 7 10 13 13 9 8 10 10 13 13 11 16 21 20 15 12 14 15 16 15 13 13 17 19 17 16 14 13 12 10 10 10 10 10 12 12 13 12 12 14 14 15 14 13 12 12 11 9 9 9 10 11 12 12 11 11 11 11 11 11 10 10 10 10 9 9 10 10 10 9 11 11 11
10 12 11 9 5 4 4 6 7 8 10 11 9 6 3 9 14 12 11 10 9 8 7 5 9 12 11 11 10 9 9 10 11 12 15 19 21 21 18 13 14 16 16 14 13 13 19 20 17 17 14 14 13 11 10 9 9 9 11 12 14 13 13 14 14 14 13 12 12 11 10 10 10 9 11 11 12 12 12 12 12 11 11 11 9 9 10 10 9 9 10 10 9 10 11 10 10
11 9 7 7 5 4 5 7 7 9 10 14 11 4 3 10 12 8 10 8 8 7 4 5 11 11 8 8 9 12 13 13 11 12 15 19 19 20 20 17 16 15 13 13 12 13 19 19 18 17 15 15 15 12 10 9 9 9 10 11 13 13 13 14 13 14 13 12 12 11 10 10 10 10 11 12 12 12 11 12 11 11 11 11 9 9 10 10 9 8 9 9 10 10 11 10 9
12 7 3 5 5 4 7 8 9 10 8 14 10 2 4 8 8 5 8 6 7 6 4 6 10 9 10 12 9 10 15 16 16 16 17 18 17 16 18 20 19 14 11 12 11 14 19 19 18 17 16 16 15 13 12 10 9 9 10 10 12 13 14 14 13 14 13 12 12 11 10 10 10 10 11 12 12 11 11 12 12 12 11 11 10 10 10 8 7 7 8 9 10 11 11 10 10
11 7 4 5 6 6 7 8 9 12 10 13 4 7 3 7 6 5 8 7 8 6 6 7 7 9 12 15 11 9 13 16 18 18 18 17 18 15 15 18 19 16 12 11 10 14 18 17 17 16 15 16 15 14 13 12 10 9 9 10 11 12 14 14 13 13 13 12 12 12 11 10 10 10 12 13 12 11 11 11 12 12 11 11 11 11 10 8 7 7 8 8 9 11 11 11 10
7 6 5 5 6 7 8 9 8 11 14 13 3 6 5 6 5 6 7 7 8 6 6 5 8 12 12 14 10 9 12 15 17 17 18 17 18 17 17 17 18 18 15 13 11 13 16 15 16 15 14 15 14 14 13 13 11 10 9 9 10 11 12 13 14 13 13 13 13 12 12 11 11 11 12 12 11 11 11 11 11 11 11 11 11 11 10 9 6 6 7 8 9 11 11 11 10
5 5 6 5 6 8 7 9 8 11 13 9 4 4 5 4 5 6 6 7 7 7 7 2 9 15 12 13 7 10 15 15 17 17 17 17 17 17 17 18 17 17 16 16 12 12 15 15 14 14 14 14 14 13 13 12 11 11 9 9 9 10 12 13 14 13 12 13 13 13 12 11 12 12 12 12 11 11 10 10 10 10 10 11 12 11 10 8 7 7 7 8 9 11 11 11 11
6 5 6 6 7 7 8 10 9 12 11 8 7 5 5 5 5 6 7 9 8 7 7 7 8 14 11 11 6 11 16 15 16 16 17 16 17 16 17 17 17 17 16 16 14 12 12 13 15 15 15 15 14 13 12 12 11 11 10 9 9 10 12 13 13 12 12 13 14 13 12 11 12 12 12 11 11 11 10 10 10 10 11 11 12 10 9 8 7 8 8 8 10 11 11 12 11
7 6 6 6 7 8 9 12 8 12 10 8 6 7 7 6 8 8 5 8 7 6 7 4 7 12 10 11 8 10 14 14 16 16 16 16 16 16 16 16 16 17 17 16 15 14 11 10 13 15 15 15 15 14 13 12 11 11 10 9 9 10 11 12 12 12 12 13 14 13 12 11 12 13 12 10 10 11 10 10 10 11 11 11 11 10 9 8 7 8 8 9 11 11 11 12 10
7 6 7 6 7 9 9 10 9 13 7 10 8 9 7 6 8 5 4 8 7 6 7 7 5 11 12 10 8 8 12 16 17 16 16 16 16 16 15 15 15 15 16 17 16 15 13 10 12 14 14 12 13 14 14 13 12 11 10 10 9 10 11 11 12 12 12 13 12 12 12 11 12 13 11 10 10 11 11 11 11 11 12 12 11 10 9 8 7 8 8 10 12 12 12 11 10
8 5 6 7 7 9 9 10 10 12 4 8 10 12 9 5 5 5 3 5 5 8 8 7 5 6 11 12 9 10 15 18 18 17 17 16 16 16 15 14 14 13 13 13 15 15 14 12 11 11 11 9 11 14 14 14 13 12 11 10 10 10 11 11 11 11 12 12 12 11 11 11 12 12 10 10 11 11 11 11 11 11 12 12 11 10 9 7 7 8 9 11 12 12 11 10 9
7 6 6 6 7 8 8 9 9 11 6 7 12 12 9 7 4 4 6 6 8 9 6 5 5 5 6 13 14 18 20 19 18 17 16 15 16 16 15 14 13 13 12 11 11 13 15 14 11 9 10 8 9 11 12 13 14 14 13 12 11 11 11 11 10 11 11 11 12 12 11 11 12 11 11 12 13 13 12 12 11 11 12 12 10 9 9 7 7 8 10 12 12 11 10 9 7
7 6 7 6 8 9 7 8 7 6 3 11 11 10 9 9 4 1 9 8 7 7 6 8 8 10 12 15 20 23 22 19 18 16 14 13 14 15 15 14 14 13 11 11 11 10 12 14 13 10 9 8 7 8 10 12 14 15 14 13 13 12 11 11 10 10 10 10 11 11 11 11 11 12 12 12 13 14 13 12 11 11 12 11 10 8 8 8 8 9 11 12 12 11 9 8 7
6 5 7 6 8 8 9 10 4 0 7 9 6 8 7 10 10 3 5 5 6 6 7 10 10 14 16 20 22 22 21 19 17 14 12 11 11 12 13 13 12 13 12 10 9 8 8 9 12 12 9 6 6 7 8 10 14 15 15 15 15 13 11 10 10 10 10 10 11 12 12 12 11 11 12 13 14 14 14 13 11 11 12 11 9 8 8 8 9 9 11 12 11 10 9 9 8
7 6 6 7 9 9 11 9 6 5 4 7 6 7 7 8 12 6 6 9 8 7 8 10 11 15 16 19 20 19 19 17 15 12 10 8 9 11 11 11 10 10 11 10 9 8 7 7 9 10 9 6 5 5 7 9 10 14 16 16 15 13 11 11 10 9 9 10 12 12 12 12 12 11 11 13 13 13 14 13 12 11 12 10 8 8 9 9 9 10 11 12 10 10 10 9 9
8 7 7 9 10 11 11 5 7 8 5 4 6 5 6 8 10 7 9 11 9 8 9 12 12 14 15 16 17 17 17 14 12 10 8 9 12 11 10 11 8 7 10 10 8 7 7 6 7 7 7 6 4 4 6 8 8 12 16 15 14 14 13 11 10 10 10 10 12 12 12 11 11 11 11 11 11 13 14 14 13 12 12 11 9 9 10 10 10 10 11 12 11 12 12 12 11
7 8 9 9 7 9 8 2 2 3 6 3 4 3 6 9 8 7 9 11 8 9 12 15 13 16 16 15 15 15 14 13 12 9 10 10 10 10 9 10 8 7 9 11 9 6 6 6 6 6 5 5 5 5 4 5 9 11 12 12 12 13 13 12 11 11 10 10 11 11 11 11 11 11 11 12 12 13 14 14 14 13 13 12 11 11 11 11 11 11 11 13 14 14 13 13 14
6 9 14 13 8 7 3 2 2 1 3 1 4 4 3 7 6 6 10 9 3 2 7 14 14 17 16 15 13 13 13 11 11 11 11 10 10 11 9 8 7 8 10 11 9 6 5 6 6 5 5 4 4 6 4 3 7 8 9 10 10 11 12 12 11 12 11 9 10 10 9 10 13 11 10 13 13 12 13 14 15 14 14 14 13 12 12 13 13 12 12 14 15 14 13 11 12
7 8 13 13 9 6 5 5 4 3 5 5 2 4 4 6 6 5 9 4 9 10 7 8 12 18 16 14 11 11 12 10 10 12 12 10 11 11 10 10 8 9 10 10 9 7 7 7 7 6 6 3 3 6 8 7 6 7 9 9 8 10 11 11 11 13 12 10 11 12 8 8 12 10 10 13 13 13 15 17 17 16 16 16 15 14 14 14 14 15 12 12 13 13 13 9 8
9 8 9 10 8 5 3 5 3 4 10 7 1 4 4 7 6 6 9 5 13 10 9 9 13 18 15 13 11 10 11 10 11 13 14 12 12 11 10 10 10 11 11 10 9 7 7 8 7 7 6 4 5 6 9 11 9 5 7 8 7 9 8 9 12 14 12 11 12 10 6 7 10 9 10 12 12 13 16 18 18 18 18 17 17 15 15 15 16 17 12 10 12 12 11 9 7
10 9 9 5 6 5 2 2 2 5 7 3 2 2 3 5 4 5 10 7 12 8 7 9 12 15 13 11 11 10 10 10 12 14 14 13 13 12 11 12 12 11 10 10 8 8 8 7 8 7 6 4 4 6 7 9 10 7 5 4 5 8 7 8 12 12 10 11 10 6 5 6 8 9 9 10 11 12 14 16 16 18 19 16 16 16 16 15 15 17 15 13 13 13 12 11 10
7 11 12 3 3 6 2 3 4 4 5 3 1 5 8 6 1 1 9 6 10 8 5 8 12 13 12 11 10 9 9 10 11 13 14 14 13 12 12 12 11 11 10 9 8 9 8 8 8 6 7 6 5 6 7 6 6 5 5 5 4 5 6 6 8 9 6 6 7 5 6 6 7 9 8 9 12 12 12 16 16 19 20 15 16 16 15 15 14 15 16 14 13 12 11 12 11
4 11 11 3 4 7 4 5 7 5 6 6 5 9 11 8 4 3 10 8 8 8 7 8 11 11 11 11 10 9 9 10 12 14 14 14 13 12 13 12 12 11 10 10 9 9 9 9 9 7 8 9 7 6 6 5 4 4 4 5 8 7 3 1 3 7 4 3 4 6 7 7 7 8 9 10 12 10 8 13 15 18 19 15 16 15 12 14 15 15 15 13 12 11 10 11 12
5 8 8 5 6 5 5 8 8 6 6 7 6 10 11 10 8 8 13 11 9 8 8 9 10 10 11 12 10 8 9 12 14 14 13 12 13 12 13 14 13 11 10 10 10 10 10 10 10 8 8 9 9 8 7 6 5 4 4 4 7 7 4 2 0 3 2 2 3 5 7 7 7 8 9 9 9 9 6 10 13 15 15 15 19 16 11 14 15 15 16 13 13 13 10 10 12
6 7 7 8 9 7 9 10 8 6 7 8 7 8 10 12 11 11 13 8 10 8 8 9 10 9 11 11 10 9 10 13 14 13 13 13 14 14 14 15 13 12 12 11 11 11 10 10 10 9 9 9 9 8 7 6 5 5 4 4 5 5 3 1 1 3 4 2 4 5 6 7 8 9 9 7 8 10 8 9 12 13 14 14 19 19 14 15 14 14 15 13 13 14 12 9 10
8 9 7 8 8 9 12 11 10 10 6 7 5 5 8 12 14 15 11 10 10 9 9 9 9 9 10 10 9 9 11 12 12 14 16 15 16 15 15 15 14 14 14 12 12 11 10 10 10 10 10 10 9 9 8 7 6 6 5 5 4 5 4 3 3 3 4 4 3 5 6 7 10 9 8 7 8 10 9 10 12 13 15 14 17 18 16 15 13 11 12 12 12 12 10 7 6
8 9 7 7 6 8 13 14 13 11 7 8 6 5 7 11 16 19 14 13 11 9 9 9 9 9 9 10 9 10 11 12 14 17 17 16 17 16 16 15 14 16 15 14 13 11 11 11 10 11 11 11 10 10 10 9 8 8 7 5 5 6 4 4 5 3 3 2 1 4 7 9 8 7 6 7 9 9 8 9 12 14 14 14 15 14 14 12 11 12 10 10 11 9 8 8 7
7 7 7 7 6 10 11 16 14 11 8 9 9 5 6 13 16 13 15 13 11 10 10 10 10 10 9 10 9 9 11 12 16 19 18 18 19 18 17 15 16 18 16 15 14 13 13 12 12 12 11 11 11 10 10 10 9 9 8 7 6 7 6 4 4 3 2 2 0 1 3 8 8 6 6 8 9 8 7 9 12 14 13 13 13 13 14 11 11 13 10 9 11 10 10 12 12
6 6 7 7 8 9 6 13 14 13 10 11 11 6 7 10 4 12 14 12 11 9 10 11 10 9 9 9 8 8 9 11 13 16 19 19 19 20 19 16 17 18 16 16 16 15 15 13 12 11 10 10 9 9 9 8 8 7 7 8 7 6 6 4 3 3 2 3 2 4 2 3 6 6 6 7 8 8 9 10 11 12 12 11 10 11 15 13 10 11 10 11 13 12 12 13 14
6 7 7 8 10 9 5 12 15 16 11 10 12 8 10 12 1 14 11 9 10 9 10 11 9 9 8 8 9 9 9 10 10 13 19 19 19 22 20 17 17 19 17 17 17 17 16 14 12 11 9 8 7 8 8 7 9 7 6 8 7 5 5 5 3 3 3 3 2 3 2 0 3 5 6 5 6 6 8 10 11 12 12 12 11 11 14 13 11 10 10 12 12 11 13 14 14
5 5 5 7 10 11 9 5 10 14 11 9 9 8 11 14 7 11 12 9 9 9 8 9 10 10 9 8 9 10 9 9 9 15 21 20 20 23 21 18 18 19 19 18 18 17 16 14 12 11 9 8 7 7 7 8 9 7 6 7 7 5 5 5 4 3 3 3 3 2 0 1 1 3 5 4 4 4 5 7 9 11 13 14 14 13 14 14 13 13 12 14 14 13 14 14 14
8 7 5 7 8 10 10 3 8 10 9 8 9 9 10 12 12 9 12 12 9 9 8 7 9 10 9 9 9 9 9 9 11 18 25 21 21 23 22 21 19 19 20 20 19 17 16 15 13 11 9 8 6 5 6 7 7 8 7 5 6 7 5 3 4 3 1 2 3 3 1 1 1 2 2 3 4 4 5 6 7 8 11 14 15 14 13 13 14 14 12 13 15 16 16 14 12
10 9 8 10 7 7 6 4 9 5 4 7 8 9 11 11 12 12 9 13 11 11 10 8 8 9 10 11 10 9 8 8 12 19 27 25 24 25 24 23 21 19 20 20 19 18 17 15 14 12 11 9 6 4 5 6 5 7 6 4 5 7 6 4 6 5 1 1 1 2 2 1 1 1 2 2 3 3 4 5 6 7 9 11 12 11 11 11 13 14 14 14 15 16 17 16 15
9 9 8 9 6 7 8 3 8 3 2 5 7 9 13 13 12 13 11 12 13 12 11 10 11 10 9 11 11 10 8 7 9 13 24 27 26 27 26 26 24 21 21 21 20 19 17 16 14 13 11 9 6 5 8 7 5 6 6 4 4 5 6 6 6 4 3 1 1 2 2 2 0 1 1 2 3 3 3 4 5 5 7 10 9 9 10 11 11 14 15 16 16 15 15 17 18
8 8 8 8 7 9 9 7 9 5 3 4 8 9 12 14 15 14 14 12 11 14 13 10 11 11 10 10 9 8 7 7 8 8 16 25 27 27 25 25 26 24 22 22 20 19 18 16 15 13 12 10 8 8 8 7 7 7 7 5 5 5 4 5 6 5 4 3 1 2 3 2 0 1 1 2 3 4 4 4 4 4 5 7 7 8 9 9 11 14 15 16 15 14 16 16 16
6 7 7 8 8 10 7 3 4 2 2 4 6 8 9 11 14 14 14 13 8 11 15 11 10 11 11 10 9 8 9 9 9 8 9 20 27 26 23 24 26 24 23 23 21 20 19 17 16 14 13 12 11 10 9 9 9 8 7 6 6 6 5 5 6 5 4 2 1 2 3 1 0 2 2 2 3 3 4 4 5 5 6 6 7 8 8 8 10 13 15 17 16 16 20 18 15
7 8 9 9 10 10 7 1 2 3 3 4 6 8 7 10 13 13 10 11 11 9 13 14 13 13 11 10 10 9 10 7 7 8 7 15 21 23 23 24 25 24 23 24 24 22 20 18 17 16 14 13 12 12 11 11 9 6 6 5 5 7 7 6 6 5 4 2 2 2 2 1 2 2 2 2 3 3 4 4 5 5 6 7 7 8 9 9 10 11 13 16 17 20 24 21 16
8 9 11 12 12 12 9 6 4 3 5 7 8 6 6 9 14 14 10 10 13 13 13 14 14 15 14 12 11 9 8 5 4 6 6 12 17 22 24 23 24 24 24 25 25 24 21 20 18 17 16 14 14 14 13 11 8 6 7 7 7 7 7 7 5 4 4 3 1 1 1 2 2 3 2 2 2 3 3 4 5 6 7 8 8 9 10 10 11 12 14 15 17 21 24 22 20
7 6 8 12 13 10 9 11 7 4 7 4 9 6 6 8 10 10 11 11 13 14 14 15 13 14 14 13 11 9 8 6 5 6 7 11 13 18 22 23 24 24 24 25 26 25 22 21 20 18 17 15 15 16 14 11 9 8 8 6 4 4 5 7 4 4 4 3 1 0 1 1 3 3 2 3 3 3 3 4 5 6 8 8 9 10 11 12 12 12 13 15 17 19 21 22 23
4 1 8 11 10 9 9 10 8 6 8 4 10 8 7 6 9 8 9 11 13 13 13 14 12 12 13 12 11 11 9 8 7 7 7 11 13 16 20 24 25 24 25 25 26 26 23 22 21 20 18 16 16 16 15 13 11 10 8 6 5 4 5 6 5 4 3 3 2 0 1 1 2 2 2 2 3 3 4 4 5 6 7 8 9 10 11 13 13 13 13 15 18 18 19 22 24
6 3 4 10 9 9 8 8 8 7 8 6 9 10 6 6 8 11 12 12 11 11 12 12 12 12 12 10 11 11 10 9 9 9 8 10 14 17 21 25 26 25 25 25 25 26 24 22 22 21 19 17 17 17 17 15 12 11 10 8 7 6 5 6 6 6 4 3 3 1 0 0 1 1 1 2 3 4 5 5 5 6 7 8 9 10 12 13 14 15 15 16 17 18 20 21 23
5 2 3 7 9 9 7 7 8 7 8 8 10 11 7 6 7 8 11 10 8 10 11 11 10 10 11 10 10 10 10 9 11 11 9 10 17 21 21 24 26 25 25 25 24 24 24 23 22 22 21 18 18 18 18 16 13 12 12 10 8 7 7 6 6 6 5 4 4 2 2 1 1 1 2 2 3 3 4 6 6 8 9 10 10 11 13 14 15 16 16 17 17 18 20 21 23
2 3 4 8 8 8 7 7 6 7 8 10 13 14 10 7 6 6 7 5 8 8 8 9 10 11 10 9 10 10 10 10 11 12 9 11 18 23 22 23 24 24 25 24 23 23 24 24 23 23 21 19 19 19 18 17 16 14 13 11 10 9 8 7 6 6 6 5 4 3 3 3 3 3 3 4 4 4 5 5 6 8 10 11 12 13 14 14 15 16 16 18 18 18 20 21 23
5 5 6 7 7 7 6 6 6 7 7 9 12 15 12 8 6 7 7 1 7 7 6 7 10 12 11 9 10 10 9 9 10 11 10 10 13 17 20 20 22 23 24 24 23 22 23 23 23 23 22 20 19 20 19 18 17 15 13 12 12 11 9 8 7 6 6 5 5 4 4 4 4 4 4 4 5 5 5 6 7 9 10 11 12 13 15 15 16 16 16 17 18 19 19 20 22
6 6 6 6 6 6 6 7 7 7 8 10 12 12 10 8 7 9 11 7 6 6 3 5 6 9 11 9 10 8 8 9 10 10 9 9 9 11 15 18 20 22 23 23 22 22 22 22 23 23 23 22 20 21 20 18 18 17 15 15 14 13 11 10 8 7 7 6 6 5 5 5 5 5 5 6 6 6 7 8 8 10 10 11 13 14 15 16 17 19 18 17 18 19 19 19 21
7 7 6 6 6 6 7 7 6 8 7 7 9 8 6 7 6 8 12 12 8 6 5 6 8 5 9 9 10 9 9 9 9 9 10 10 10 11 15 17 18 20 21 21 21 21 21 21 23 23 23 23 21 20 21 19 19 17 17 16 15 14 13 12 10 9 8 8 7 6 6 6 6 7 7 8 9 9 10 10 11 12 13 14 15 16 17 18 19 20 20 19 19 19 19 20 21
8 8 8 7 7 6 7 6 6 7 5 5 6 4 3 5 3 5 9 10 10 9 8 7 7 5 6 8 9 9 10 10 8 8 8 11 13 15 17 18 18 19 20 21 21 21 21 21 22 23 22 23 22 21 21 20 19 18 17 17 16 15 14 13 12 10 9 9 8 7 7 7 8 8 9 9 9 10 11 12 13 15 16 16 17 17 18 19 18 19 20 21 21 20 20 21 22
6 7 8 7 7 7 7 7 7 8 7 7 6 4 3 4 4 8 10 8 10 11 6 8 7 6 4 6 7 7 8 8 8 7 6 11 16 17 18 18 18 20 21 21 22 22 22 21 22 22 22 23 22 21 21 20 19 18 18 18 17 16 15 13 13 11 11 11 10 9 9 9 9 9 10 10 11 12 13 14 15 16 16 16 17 17 17 18 18 18 19 20 21 21 21 22 23
5 7 8 7 8 8 6 6 7 7 8 7 5 5 6 6 7 10 12 12 12 12 10 8 8 8 7 5 4 6 7 6 6 6 5 9 15 17 18 18 19 21 21 22 22 23 24 22 22 22 21 21 23 22 21 20 19 19 19 19 18 17 16 15 14 12 12 11 11 11 10 10 10 11 11 11 12 12 13 14 16 17 17 17 17 17 18 18 18 19 19 19 21 22 22 22 22
7 7 8 7 8 7 5 5 6 6 7 7 6 7 7 7 6 8 11 13 12 11 12 10 6 7 9 7 6 7 7 7 5 5 5 7 13 18 20 20 21 22 23 23 23 24 23 23 22 22 22 22 23 23 22 21 20 20 19 19 19 18 17 16 14 13 12 12 12 11 11 11 11 11 11 11 12 13 14 15 16 17 17 18 18 18 18 18 18 19 19 20 20 20 22 23 22
12 10 9 7 7 7 5 5 5 6 7 6 7 10 9 8 7 8 10 10 9 10 9 9 8 7 8 7 8 9 8 6 5 5 6 5 8 16 21 22 22 23 23 23 24 23 22 22 22 22 23 23 24 23 22 21 20 20 19 19 19 18 17 16 15 14 13 13 13 12 11 11 11 11 12 12 13 15 16 16 16 17 17 18 18 18 18 18 19 19 19 20 20 20 21 22 22
12 12 9 7 7 7 7 6 5 7 8 7 9 9 7 7 8 9 12 10 8 9 6 6 8 7 6 5 6 8 7 6 5 5 6 6 7 13 20 21 21 22 22 22 23 23 22 21 21 22 22 22 23 23 22 21 20 20 19 18 19 18 17 16 16 15 14 14 13 12 12 12 12 13 13 14 15 15 16 16 16 17 17 18 19 19 19 19 19 20 20 20 20 20 21 21 22
8 8 8 7 6 5 6 7 7 8 8 7 7 8 6 6 6 7 10 9 7 8 6 5 6 6 7 5 4 6 6 5 5 5 6 6 7 10 18 21 20 22 23 23 22 23 22 21 21 21 21 21 22 23 22 21 21 20 19 19 19 19 17 16 15 15 15 14 13 12 12 12 13 13 14 15 16 16 16 17 17 17 18 18 19 19 19 19 19 20 20 21 20 21 22 22 21
8 7 7 8 6 3 3 5 7 7 7 6 6 7 8 6 4 8 9 8 7 9 9 7 5 4 5 7 7 5 5 4 5 4 6 5 6 9 15 20 20 20 21 23 23 22 21 20 20 20 20 21 22 23 23 22 21 21 20 19 19 18 18 16 16 15 15 14 13 12 13 13 14 14 15 15 16 16 17 17 18 18 19 19 19 20 20 19 20 21 21 22 21 21 22 22 22
Wind_Direction
275 294 295 287 279 277 274 244 251 219 228 255 253 263 256 244 125 151 110 83 160 74 62 52 36 58 72 80 79 62 49 40 46 88 110 101 104 105 108 112 119 124 137 145 144 151 148 139 135 129 124 124 126 123 117 123 145 156 152 148 152 158 158 161 165 162 157 153 152 155 159 162 158 148 141 141 143 143 140 135 133 132 129 128 126 123 118 114 109 108 107 105 108 110 112 112 113
275 288 277 263 265 261 266 220 249 250 223 246 244 251 255 211 89 226 149 88 101 89 68 74 66 71 101 99 80 70 58 57 71 88 111 105 97 92 104 115 123 127 137 143 143 145 148 146 140 134 129 128 131 131 125 126 141 155 157 154 157 163 161 164 168 165 160 156 158 160 160 162 162 153 144 145 148 149 148 144 139 137 135 134 131 126 123 119 116 113 111 110 111 114 115 116 118
275 285 272 241 239 239 271 243 239 258 243 247 244 238 232 147 167 230 126 98 95 96 85 86 62 20 98 99 69 73 73 70 85 96 112 106 97 96 108 120 127 130 133 137 141 141 150 150 145 140 135 135 136 137 133 130 139 153 158 158 161 165 162 165 170 168 164 161 162 165 163 163 164 158 150 150 152 155 155 149 144 143 139 137 136 129 126 124 120 118 116 115 114 119 120 120 121
270 275 271 250 231 223 247 247 236 253 254 253 262 240 189 179 121 118 102 104 106 113 110 104 73 16 44 95 86 84 81 72 77 85 99 98 101 109 113 119 123 129 131 134 140 144 154 154 149 144 140 140 136 135 134 133 141 153 158 159 164 165 162 164 170 170 169 166 166 167 165 166 166 162 157 153 154 158 157 151 146 144 140 139 137 132 129 128 127 124 121 121 121 123 125 126 124
268 264 260 254 252 242 244 247 243 242 250 253 271 359 129 138 89 97 103 114 121 124 116 119 115 62 49 68 85 89 93 89 79 85 91 90 99 111 114 117 118 122 127 135 143 148 157 157 152 147 146 142 134 135 134 135 139 149 156 157 163 165 163 164 168 172 173 170 169 170 167 169 170 166 161 156 156 159 159 155 151 147 143 141 140 136 133 134 135 129 126 128 129 130 132 132 126
257 254 244 242 270 300 279 246 240 241 245 256 269 354 46 111 100 107 114 120 115 106 116 114 109 96 69 58 58 62 87 96 85 89 93 92 98 107 111 112 115 118 123 130 136 148 159 159 154 150 152 145 136 137 135 136 136 143 151 154 163 167 169 168 170 174 176 173 172 174 170 169 170 170 165 160 159 161 163 161 159 156 151 148 148 143 138 141 142 136 136 134 135 135 136 139 128
248 248 224 222 258 272 261 248 244 248 236 249 256 324 339 101 102 128 126 122 107 108 141 114 107 104 98 94 69 59 74 90 92 88 94 99 99 107 114 111 109 111 114 120 123 141 158 161 155 153 155 146 139 141 137 137 137 140 146 152 162 170 175 172 175 179 178 177 176 177 174 170 170 174 170 165 164 165 165 165 165 164 162 159 156 150 146 149 149 143 142 140 142 142 140 142 130
245 251 235 223 241 222 237 251 247 255 248 252 238 85 345 97 112 151 134 150 139 143 161 140 132 110 96 98 89 77 77 87 94 91 94 99 101 110 115 109 108 110 106 111 118 135 154 160 157 158 156 146 144 147 141 140 143 143 147 152 159 169 178 177 180 182 180 179 178 180 179 176 173 174 175 170 168 169 166 165 167 166 167 166 161 157 157 157 150 146 144 147 151 148 143 144 133
237 238 249 242 245 238 237 245 244 253 258 265 244 94 43 99 134 167 157 176 151 155 151 152 137 107 101 97 99 102 92 93 95 94 93 92 96 102 106 107 110 113 108 109 117 135 152 159 158 161 157 151 153 153 148 147 147 149 152 155 160 168 176 182 184 182 182 182 180 182 182 182 177 175 179 175 170 172 168 166 166 166 169 168 164 163 166 163 153 148 147 151 154 151 145 145 137
229 224 236 246 242 248 242 241 240 250 246 244 224 131 148 119 168 185 168 158 139 145 122 114 108 111 112 102 105 110 108 109 102 97 96 93 93 94 98 103 108 111 112 114 122 142 154 159 160 162 160 158 160 159 154 150 149 152 157 160 165 170 177 182 183 182 184 185 183 183 183 184 182 179 183 178 175 176 171 170 167 168 173 170 170 174 174 170 162 152 147 151 156 154 148 146 139
229 215 233 253 242 245 245 247 230 242 245 216 152 136 176 164 195 189 163 153 144 126 114 168 120 112 108 99 103 114 116 112 103 99 98 97 95 95 97 101 106 109 111 115 120 143 157 160 161 167 167 166 168 164 157 154 154 156 160 164 170 176 182 183 183 186 188 188 184 185 184 186 186 183 186 182 182 183 177 176 174 173 177 177 178 183 181 176 171 157 148 156 161 158 150 145 138
241 216 220 241 247 246 240 253 238 237 234 169 135 144 201 217 208 203 184 166 148 126 155 212 138 119 118 108 114 124 118 108 105 105 101 97 95 94 97 103 108 111 112 113 116 129 151 161 164 171 175 173 174 170 162 161 161 160 163 167 175 180 186 188 189 190 191 189 184 187 187 187 189 188 191 190 190 189 184 184 183 181 181 184 186 189 186 177 171 159 153 161 167 162 150 144 138
246 235 228 231 247 256 248 255 251 247 228 151 157 169 186 207 208 220 181 136 141 163 156 158 141 133 124 117 128 128 117 114 114 110 105 101 97 92 91 96 103 112 115 113 113 117 129 152 165 174 178 176 178 178 170 169 169 166 167 171 180 186 190 193 194 192 191 189 186 190 189 189 194 196 197 196 199 194 189 189 189 190 186 191 193 193 186 176 171 161 153 159 162 157 147 144 139
240 244 250 247 248 254 258 260 257 259 224 142 165 160 172 200 199 213 138 149 164 161 114 77 107 116 113 127 134 134 124 122 116 108 107 101 98 95 89 86 88 100 111 114 115 113 116 131 156 175 179 175 177 182 178 177 178 174 173 174 182 191 193 195 196 193 191 193 194 195 193 194 198 198 199 199 205 199 192 190 192 195 191 195 198 197 189 176 172 164 155 157 155 150 146 145 141
240 250 256 261 262 255 253 259 268 278 257 145 149 141 166 175 176 198 156 181 139 102 92 62 39 94 143 154 141 137 127 119 114 109 110 105 102 98 94 89 81 82 89 101 111 116 116 116 129 156 165 164 170 180 184 185 186 185 183 179 183 194 196 196 199 196 193 200 204 204 200 198 199 200 203 202 207 207 196 192 195 195 192 195 197 199 198 183 173 166 159 158 154 149 149 147 145
240 255 261 261 263 259 251 255 263 277 291 113 122 133 165 145 170 204 90 75 101 114 123 93 36 23 139 145 130 124 121 118 117 116 116 116 116 109 102 97 88 81 74 74 88 110 119 117 112 123 144 154 162 175 187 191 193 193 191 188 187 193 199 200 200 200 199 206 209 209 205 199 201 205 208 206 208 212 203 195 198 195 191 195 197 200 204 193 176 168 165 161 156 152 150 152 156
233 243 260 257 252 255 254 255 250 268 42 98 130 155 170 145 171 141 83 87 112 132 118 94 72 57 80 107 116 118 120 122 124 128 127 135 137 125 118 112 106 96 82 71 64 82 108 118 119 118 131 146 157 171 185 191 197 198 196 195 192 192 198 202 201 203 204 209 211 207 203 201 205 210 211 209 209 213 208 200 199 197 193 192 194 200 205 195 177 172 168 163 160 154 152 152 157
234 227 244 250 248 247 251 260 259 179 98 110 153 173 182 165 173 135 112 146 123 132 109 93 93 92 95 103 113 119 123 129 135 140 143 159 152 129 123 114 110 109 100 86 69 66 74 90 112 121 121 133 159 167 178 190 197 198 199 199 198 195 195 203 202 201 204 205 208 205 203 204 206 211 211 209 210 211 208 206 202 197 195 191 191 194 199 190 174 175 172 168 164 159 157 154 151
237 233 235 243 251 248 253 281 358 4 99 139 170 180 209 175 166 155 183 189 146 157 144 131 123 113 115 114 119 123 127 137 145 150 153 146 107 93 101 96 91 99 103 95 81 73 62 54 79 102 105 115 142 141 161 183 194 195 198 200 200 197 193 201 200 199 205 204 206 207 207 207 205 209 211 207 209 210 208 209 205 198 197 194 191 187 192 185 172 175 177 176 172 171 172 167 160
226 236 242 231 249 275 268 297 29 352 3 138 164 186 207 161 157 160 201 203 164 186 170 154 151 138 135 125 125 126 130 139 142 146 129 107 95 93 102 106 105 99 102 99 89 80 82 70 64 79 93 109 123 111 144 166 182 190 193 199 200 200 197 195 197 200 205 205 206 209 210 211 210 210 209 203 206 211 209 209 204 198 196 194 193 185 185 184 174 175 185 189 187 190 188 184 181
213 220 246 239 254 298 282 279 68 298 337 28 132 197 194 156 164 164 208 213 176 211 193 173 171 154 142 128 129 130 133 135 138 137 109 105 105 100 91 92 101 109 109 102 97 93 99 103 89 81 85 104 120 107 112 156 176 178 184 195 194 196 198 195 200 202 205 211 207 210 213 208 209 213 208 199 206 210 206 207 204 198 195 195 194 184 183 183 176 177 188 198 201 205 207 207 197
224 221 241 256 278 317 349 359 348 278 303 309 143 205 184 147 173 169 214 219 131 283 187 176 172 149 136 128 133 134 137 140 143 135 113 109 101 102 106 106 112 112 104 96 95 94 95 104 104 93 85 96 122 129 110 122 170 176 184 195 189 192 196 194 201 203 207 213 204 207 211 203 205 217 220 210 210 212 206 205 203 200 197 196 192 182 185 182 176 181 187 198 206 212 222 223 199
228 229 233 252 271 307 7 17 11 4 263 251 165 225 213 167 183 185 222 196 71 38 59 119 132 131 130 129 136 140 142 147 144 133 126 128 119 122 126 122 120 104 96 96 98 91 82 83 92 92 88 81 70 120 124 113 143 182 198 199 190 194 197 197 203 203 206 209 208 209 204 206 208 213 228 217 210 212 212 208 203 200 198 198 191 180 190 185 175 184 188 198 210 220 227 219 193
227 246 248 251 243 239 20 35 6 277 249 253 243 250 225 170 184 209 217 132 88 71 67 86 110 124 131 133 142 146 146 151 143 135 137 135 122 120 111 101 98 96 97 95 96 94 83 74 79 82 79 74 48 84 122 117 108 128 183 194 190 191 194 207 210 207 208 213 220 217 204 224 216 206 217 213 209 214 215 212 205 201 199 200 192 183 194 192 182 193 202 207 214 226 222 198 191
227 250 265 258 229 220 100 83 267 256 247 282 21 253 231 180 192 223 216 155 106 100 99 109 119 129 136 140 147 148 149 150 138 132 133 127 119 120 113 105 100 100 101 96 95 92 90 85 84 84 76 78 60 62 97 109 97 92 114 154 190 197 192 207 215 211 215 219 226 224 213 229 216 210 216 206 207 217 220 218 213 205 202 202 198 194 199 195 191 202 212 216 223 232 214 188 188
215 235 253 250 216 236 201 193 226 230 238 256 217 227 231 217 197 243 236 204 117 125 151 136 134 142 146 147 150 151 152 143 134 130 126 127 132 129 122 120 115 112 110 108 102 90 92 92 87 88 81 80 81 74 76 82 85 86 89 101 125 178 193 211 219 214 222 225 227 228 222 221 210 218 224 210 209 216 221 223 221 209 205 206 200 204 208 199 196 204 212 218 224 232 214 188 182
237 237 250 259 245 235 195 222 228 209 229 230 216 232 235 224 202 208 242 230 140 145 181 164 151 151 150 153 153 154 152 139 136 133 129 137 140 136 133 128 119 119 120 115 108 97 94 91 82 83 87 83 87 92 86 77 67 64 73 98 97 94 113 62 218 218 236 248 237 239 232 224 219 228 229 224 221 219 211 214 220 210 210 216 205 211 217 201 203 205 208 218 223 231 224 193 182
270 256 259 241 242 234 195 231 231 202 224 217 220 245 243 231 206 211 238 222 162 162 191 180 167 157 153 158 157 158 151 143 144 139 140 150 147 147 141 127 123 126 124 115 111 104 95 91 84 80 85 83 83 91 93 89 78 75 67 66 80 80 75 45 1 203 199 237 271 275 250 227 223 233 232 233 230 230 211 199 212 210 212 216 209 221 223 199 210 211 204 215 222 229 235 204 188
262 259 267 235 223 227 220 227 217 204 220 196 213 252 245 239 216 215 236 198 151 177 199 186 176 166 159 158 160 166 155 152 155 147 155 160 151 153 140 130 138 131 119 118 117 112 102 97 93 87 88 85 84 86 91 92 77 85 84 54 69 83 86 99 49 73 79 41 339 315 281 248 229 229 226 222 219 221 219 212 215 212 210 212 218 234 231 199 206 215 208 215 222 231 242 222 191
251 244 248 245 227 221 219 215 209 208 199 160 188 250 239 237 222 215 213 158 156 196 201 190 181 170 164 161 167 170 157 162 164 155 167 166 151 151 140 140 148 131 124 128 124 121 116 110 103 96 94 93 91 86 90 94 74 76 79 56 71 84 78 80 64 29 14 14 4 336 311 271 242 236 226 218 217 211 213 222 224 215 209 214 225 239 237 208 200 213 213 216 227 238 247 236 203
246 243 232 245 246 237 215 199 204 199 163 154 192 255 253 253 237 215 190 161 175 201 203 198 185 174 169 162 173 173 162 173 170 162 173 164 151 150 144 151 149 133 135 136 132 129 123 120 115 108 102 100 97 91 89 88 76 76 73 56 63 72 67 69 73 39 6 33 357 319 311 288 268 269 260 243 236 222 220 225 223 220 216 218 219 227 238 228 215 219 219 223 229 233 238 239 226
232 240 232 230 238 265 228 184 188 193 170 180 207 253 251 264 260 200 160 162 184 201 204 201 188 179 173 165 179 178 164 179 175 166 171 162 151 150 151 157 146 137 141 138 138 135 127 126 122 117 112 106 101 97 96 93 87 81 72 65 63 65 64 62 72 71 64 78 150 241 284 287 288 302 293 268 252 234 236 233 226 230 229 224 219 222 233 233 224 217 218 238 234 223 228 237 227
216 230 246 240 223 259 232 165 179 198 190 190 203 242 254 268 290 127 141 166 184 206 199 194 193 177 172 172 180 183 166 176 182 170 168 163 155 151 156 160 145 141 146 143 144 142 137 137 133 128 121 115 112 108 104 103 104 94 82 78 70 76 74 58 67 76 85 90 97 125 120 285 285 295 292 284 272 247 240 236 229 234 231 227 230 238 234 226 226 212 209 235 238 232 233 238 230
214 212 236 253 246 259 220 169 185 200 206 205 198 218 259 278 78 124 148 176 184 213 203 192 192 175 180 182 182 191 178 174 183 171 165 166 159 153 159 161 149 147 150 150 151 148 147 147 146 145 138 132 129 128 124 121 122 115 107 94 73 85 84 52 65 98 110 117 111 116 108 220 279 286 273 279 282 264 255 245 235 234 231 225 227 241 237 225 225 218 217 230 230 233 242 251 250
258 239 235 248 251 264 263 209 185 191 204 220 215 216 241 266 254 158 161 179 197 215 211 199 189 182 188 190 194 199 189 180 183 169 164 167 161 155 160 162 155 153 155 157 157 155 154 155 158 156 154 151 141 145 151 147 138 116 98 93 77 86 87 58 65 82 112 129 111 94 99 208 232 285 267 273 278 274 275 261 251 245 240 233 228 236 239 230 225 221 228 241 241 236 240 253 270
328 320 300 277 249 241 255 221 156 178 197 214 233 247 244 253 261 228 174 175 203 214 215 214 192 186 190 198 207 206 198 189 183 168 163 166 163 156 159 162 161 160 160 163 163 164 162 161 166 164 164 164 158 175 176 161 143 111 89 87 81 80 74 90 118 101 99 121 107 101 88 195 194 264 263 288 283 274 274 268 273 265 251 242 236 240 241 235 231 225 229 245 252 246 242 247 266
333 322 304 297 283 248 257 129 129 164 214 217 227 249 258 256 260 261 209 173 189 212 217 219 208 196 194 205 208 207 213 202 190 170 161 167 166 160 161 163 166 166 166 169 170 172 171 168 170 170 172 176 184 186 148 127 116 112 104 91 86 81 62 82 123 119 128 117 109 153 149 157 205 280 273 292 289 280 277 275 287 285 266 251 245 251 252 247 237 229 230 238 248 249 248 250 252
327 315 298 293 288 282 288 123 121 124 204 243 259 260 267 270 264 265 247 196 185 200 215 216 217 214 208 211 209 207 213 209 206 175 162 168 166 163 163 163 168 173 173 176 177 178 178 175 175 174 175 178 181 156 135 129 122 117 112 96 91 95 74 76 109 122 138 133 108 156 156 159 148 351 311 307 299 282 277 272 278 280 280 272 263 265 262 263 255 237 233 238 245 250 251 252 248
324 309 290 285 283 283 271 185 154 153 165 240 266 269 271 271 263 258 254 236 198 187 204 219 218 221 222 218 217 218 220 219 217 193 170 167 164 165 165 163 171 177 177 180 181 181 181 180 181 178 175 175 171 157 151 153 147 133 127 121 109 111 100 100 119 120 112 113 114 141 151 151 103 352 326 317 308 293 288 283 281 271 277 280 275 274 267 269 268 252 244 243 243 250 254 250 245
290 282 276 272 262 267 270 179 131 64 344 292 281 278 273 269 265 255 246 249 237 184 185 205 221 229 233 227 226 219 225 230 214 216 190 163 160 165 167 166 174 179 179 180 182 183 184 185 184 180 178 178 173 166 164 165 160 147 134 122 113 124 129 117 119 108 96 101 122 158 161 155 296 310 305 301 306 306 299 291 293 282 276 278 271 273 272 263 264 262 257 253 244 244 253 252 244
260 253 256 270 267 275 299 0 53 349 294 265 270 278 269 257 255 251 239 234 246 226 194 197 208 222 234 239 243 224 221 229 209 223 205 158 156 164 170 171 174 180 181 182 184 183 185 188 186 183 180 180 177 173 176 178 173 159 149 147 153 159 146 118 109 100 93 95 103 168 187 217 267 277 279 288 301 303 302 295 295 291 282 285 281 277 275 265 261 262 263 263 250 241 246 250 246
264 247 239 251 262 281 302 299 293 293 270 232 224 256 270 255 247 237 230 222 228 235 227 215 206 212 220 228 238 230 225 234 230 233 181 148 155 163 172 177 176 182 184 184 186 184 185 187 187 184 181 182 182 179 182 185 181 177 188 194 192 188 151 117 109 103 99 102 98 210 213 216 241 257 260 265 282 285 297 296 292 294 287 286 287 283 280 273 264 254 250 256 255 247 245 245 246
258 272 264 248 241 254 281 292 290 274 288 238 184 226 275 276 270 232 211 219 221 219 225 229 221 217 218 218 221 218 220 218 222 228 166 149 164 166 172 180 181 185 187 185 185 186 186 185 187 186 182 185 186 184 183 183 185 188 200 203 190 188 142 124 132 126 112 116 112 147 183 211 240 241 240 241 260 270 276 281 280 285 284 283 283 280 279 277 272 262 249 246 248 249 244 239 241
248 4 305 280 253 249 262 279 279 264 287 253 179 217 265 277 291 271 226 219 220 212 211 221 229 233 228 216 212 212 212 201 193 208 183 165 176 178 176 180 185 188 187 185 184 186 187 184 187 187 184 187 187 186 185 183 188 189 190 193 187 186 152 142 159 160 130 124 130 132 146 213 247 234 239 242 250 261 264 270 272 273 277 279 278 276 275 274 272 269 262 255 250 246 242 240 241
251 194 274 284 273 268 262 261 265 256 268 259 212 225 246 251 265 274 262 238 211 201 207 216 221 236 239 222 217 217 202 188 183 193 196 174 174 185 183 180 186 188 186 185 183 184 186 184 185 185 185 188 187 188 187 185 191 189 184 190 193 182 165 168 180 175 165 161 163 175 247 251 249 237 250 252 252 258 262 268 270 269 272 274 274 273 271 271 272 271 269 268 263 255 247 242 241
270 319 298 282 274 276 269 253 260 256 250 254 248 243 247 258 248 246 256 243 199 190 209 217 209 220 234 219 216 216 195 187 187 185 196 185 173 183 188 183 185 187 185 184 181 181 184 185 184 185 186 188 188 190 189 189 193 189 185 193 197 183 176 187 184 170 175 191 190 194 230 252 267 257 244 253 258 251 253 260 265 266 267 267 267 268 271 272 273 274 275 274 273 270 262 252 246
260 319 275 261 254 252 251 247 255 261 256 250 254 257 255 265 264 256 269 235 190 206 215 202 195 205 217 209 204 207 199 194 186 178 191 191 173 176 183 183 184 184 182 180 178 180 183 185 185 185 187 189 190 192 192 192 193 189 189 195 196 190 187 189 186 183 187 197 202 203 222 233 243 254 249 258 262 252 252 258 262 265 268 269 267 265 268 271 271 271 272 273 272 272 270 266 258
243 255 254 261 247 232 233 238 240 247 260 257 257 257 248 251 253 260 309 5 182 226 241 200 195 196 200 204 200 201 207 201 184 176 185 185 170 169 176 181 181 178 177 177 177 180 182 185 186 185 187 191 191 192 193 193 193 190 192 195 194 195 196 192 195 203 198 200 214 219 229 241 249 257 254 257 259 255 261 263 266 270 272 275 273 271 269 270 272 272 270 269 269 268 268 268 266
240 241 244 256 252 242 235 232 234 239 249 256 265 267 253 254 254 255 294 305 206 206 249 261 241 194 185 198 196 194 209 205 188 181 179 172 162 163 171 178 179 175 174 176 176 179 182 185 186 186 188 191 191 192 193 194 194 192 193 194 193 195 197 196 200 206 204 208 220 224 229 243 259 266 262 262 263 263 267 267 268 271 272 273 274 275 273 271 272 273 272 271 269 268 268 267 267
214 230 240 245 250 257 253 245 245 247 249 256 275 292 273 263 267 254 271 283 265 218 205 268 285 211 178 192 197 192 205 212 204 195 183 167 159 161 169 176 177 172 173 177 178 181 183 185 187 188 190 191 191 192 193 194 196 195 196 195 194 195 197 198 201 206 208 210 219 228 231 240 253 262 265 267 267 267 266 266 266 267 269 271 271 272 272 272 271 271 271 271 271 270 269 268 268
222 227 235 246 259 266 267 269 268 273 293 293 280 294 263 253 273 260 262 280 285 260 206 211 267 248 182 194 209 202 204 211 214 215 195 164 157 160 167 174 173 170 175 180 182 184 185 186 189 190 191 190 191 192 192 194 197 197 198 198 196 197 198 200 202 207 212 213 218 226 231 239 248 256 263 266 267 267 267 268 271 272 273 273 273 274 273 272 273 272 270 269 270 272 270 268 267
258 245 237 239 254 267 277 282 286 293 302 292 273 267 257 256 262 264 269 274 276 278 246 200 223 244 211 206 223 224 219 210 204 221 205 155 154 160 166 172 173 173 180 185 185 186 187 189 190 191 192 191 191 192 192 195 198 198 200 200 200 199 198 201 203 207 212 213 216 223 229 239 246 252 259 263 266 268 270 272 275 277 277 276 276 277 277 275 274 273 273 271 270 271 271 269 267
268 260 256 250 244 250 267 278 283 287 281 272 265 263 267 270 257 248 254 258 257 268 268 237 214 213 211 207 223 243 252 236 203 215 205 149 151 161 170 178 179 178 184 188 188 189 190 190 189 191 193 191 191 192 194 196 198 199 202 202 202 201 200 202 203 207 211 212 217 225 232 240 246 253 259 263 268 270 271 275 276 277 277 277 277 277 278 277 276 275 274 274 273 271 270 270 268
265 259 268 278 269 260 259 265 268 265 265 267 260 261 266 266 264 254 247 248 252 259 260 253 231 209 208 200 197 220 245 254 238 221 213 167 159 166 173 180 182 183 187 189 191 192 190 190 189 190 191 191 191 193 194 197 198 199 202 203 204 204 203 203 204 208 211 213 221 230 240 246 251 256 260 263 268 271 275 277 278 279 279 277 277 277 277 276 276 277 275 273 274 273 272 271 270
263 272 280 280 274 269 257 252 261 258 259 266 262 263 265 257 262 271 261 255 267 278 271 260 258 245 228 205 192 205 218 231 245 234 219 198 172 169 170 175 181 186 189 189 189 189 188 190 190 190 191 191 191 191 193 195 197 199 201 203 204 204 204 205 205 209 212 216 225 233 240 247 252 257 261 266 269 273 276 278 278 280 281 279 278 277 277 276 275 274 274 275 275 275 275 273 271
256 263 268 268 268 274 269 255 256 257 257 265 265 261 260 259 263 271 276 284 290 286 283 272 272 270 252 217 189 202 209 202 215 237 228 211 191 172 166 171 182 187 191 191 185 180 184 188 188 189 191 191 189 188 191 194 195 198 200 201 204 204 205 206 207 210 214 220 228 233 240 246 253 259 263 268 272 273 274 277 280 281 281 280 279 278 276 276 275 273 272 273 274 274 275 273 270
255 257 262 262 262 282 289 272 263 263 263 266 270 267 259 259 279 293 299 316 318 303 306 295 282 279 273 268 231 209 199 182 187 222 238 208 188 178 168 172 189 196 190 183 175 174 179 183 185 187 188 187 188 188 191 193 194 196 198 200 203 204 205 207 209 213 217 223 230 235 241 248 253 259 264 267 270 272 274 277 280 282 282 280 280 280 279 276 275 274 273 273 273 272 273 273 272
268 267 270 265 260 275 288 271 269 273 273 267 266 275 275 276 309 311 313 338 342 327 328 327 331 337 330 337 322 262 206 167 162 196 242 221 189 187 175 177 192 195 179 169 169 173 176 179 183 185 186 187 189 189 191 193 194 196 199 201 203 205 206 209 211 214 219 224 230 237 242 249 254 258 262 266 268 271 274 277 279 280 281 280 279 279 280 278 276 274 272 272 272 271 271 272 274
Height
773 773 772 773 771 772 769 768 780 775 773 782 766 758 743 720 722 727 732 734 736 736 729 733 731 730 739 750 756 757 758 761 765 775 791 783 775 781 780 782 783 783 785 785 786 787 788 789 789 790 791 791 792 793 794 794 795 796 798 799 799 801 801 802 803 804 805 806 807 807 809 809 810 811 811 812 812 814 815 816 816 817 817 818 818 819 819 820 821 822 822 823 824 824 825 826 827
773 773 771 773 770 774 770 764 784 779 775 782 762 751 735 718 728 731 731 734 737 735 729 732 733 734 738 742 748 755 762 760 759 765 772 772 776 781 781 784 784 784 785 785 787 788 789 789 790 790 791 791 792 793 794 795 796 797 799 800 801 801 802 803 803 804 805 807 808 808 810 810 811 812 812 813 814 815 815 816 817 818 818 819 819 819 820 821 821 822 823 824 824 825 825 827 828
773 773 771 773 769 771 769 766 783 782 778 778 756 736 725 726 734 728 725 731 733 731 733 735 738 740 739 747 754 762 769 762 758 763 766 771 778 781 782 783 784 785 785 787 788 788 789 789 790 790 791 792 792 793 794 795 797 798 799 801 802 802 803 804 804 806 806 807 808 809 810 811 812 813 813 814 815 815 816 817 817 818 819 820 820 820 821 821 822 823 824 824 825 826 826 828 829
772 772 771 770 770 771 773 775 778 779 778 769 752 728 719 728 728 724 725 729 730 730 737 740 747 745 742 757 759 763 771 765 762 764 768 772 777 781 782 782 784 785 785 787 788 788 788 788 790 790 791 792 793 794 795 796 797 799 800 802 802 803 804 804 805 806 807 809 809 810 810 811 812 813 814 814 815 816 817 818 818 819 820 820 821 821 822 822 823 823 824 825 826 827 827 829 830
772 772 771 769 773 771 771 775 771 773 773 759 749 728 718 726 728 730 729 729 729 731 737 741 752 749 747 756 756 766 771 767 766 765 769 774 778 781 781 782 784 785 786 787 787 788 788 789 789 790 792 792 794 795 796 797 798 799 801 802 803 804 805 805 806 807 808 809 810 811 811 812 814 814 814 815 816 816 817 818 819 820 820 821 821 822 822 823 823 824 825 826 827 827 828 829 830
772 771 769 767 769 765 771 777 771 769 758 746 745 732 722 725 730 734 732 731 728 730 735 740 749 753 759 760 757 764 765 767 769 767 770 776 780 781 782 783 783 785 786 786 787 787 788 789 790 791 792 793 794 795 797 798 799 801 801 803 804 805 806 806 807 808 809 810 811 812 812 813 814 815 815 816 816 817 818 818 820 820 821 822 822 822 823 823 824 824 825 826 827 828 829 830 831
771 770 768 770 769 766 779 780 770 764 746 735 737 731 725 725 730 734 736 738 736 735 736 740 744 754 766 763 764 765 762 766 768 769 772 776 780 781 783 783 783 784 785 786 787 787 788 789 790 791 792 794 795 796 798 799 800 801 802 803 804 805 806 807 808 809 810 811 812 812 813 814 815 816 816 816 817 818 818 819 820 821 822 822 822 823 823 824 824 825 826 827 827 828 829 830 831
770 770 766 772 775 771 778 775 765 757 741 727 723 726 726 726 731 735 739 742 744 742 740 741 740 757 767 762 771 771 765 768 768 772 774 775 779 781 782 783 784 785 785 786 787 788 789 790 791 792 793 795 796 797 798 799 801 802 803 804 805 806 807 808 809 810 811 812 812 813 814 814 815 816 817 817 817 818 819 820 820 822 822 823 823 823 824 824 825 826 826 827 828 829 830 831 832
767 769 767 773 777 773 773 770 762 751 740 728 719 725 727 726 731 735 740 741 742 743 743 741 739 760 769 765 775 771 767 771 771 774 775 777 779 780 782 783 786 786 786 786 787 788 789 791 791 792 794 796 796 797 798 800 801 802 804 804 805 806 808 809 810 811 812 812 813 814 814 815 816 817 818 818 818 819 820 820 821 822 822 823 824 824 824 824 826 826 827 828 828 829 830 831 832
765 767 769 773 776 777 773 765 758 747 737 727 721 725 726 728 732 734 738 740 740 743 743 738 743 760 767 770 775 770 770 772 772 775 776 779 780 781 783 784 786 787 788 788 788 789 789 791 792 794 795 796 797 798 799 800 802 803 804 805 806 807 808 809 810 812 812 813 814 815 815 816 817 818 819 819 819 819 820 821 822 822 823 824 824 824 825 825 826 827 828 828 829 830 831 832 833
769 765 766 775 778 779 774 762 753 744 731 723 724 725 726 727 732 733 736 741 740 744 746 742 750 759 765 772 774 770 770 772 773 776 778 780 781 782 783 785 787 787 789 788 790 789 790 792 793 794 795 797 797 798 800 801 803 804 805 806 807 808 809 810 811 812 813 814 814 815 816 817 818 818 819 819 820 820 821 821 822 823 823 824 824 825 825 826 826 827 828 828 829 830 831 832 833
772 767 766 779 779 772 765 757 748 738 728 727 731 728 726 727 733 736 736 741 742 748 749 745 749 754 767 776 773 769 769 773 775 777 779 781 782 783 784 785 786 788 789 789 790 791 791 792 793 795 796 797 798 800 801 802 803 804 806 807 808 809 809 810 811 812 813 814 815 816 816 817 818 819 820 820 820 821 821 822 822 823 823 824 824 825 826 826 827 827 828 829 830 831 831 832 833
771 767 767 775 770 763 759 752 743 736 730 729 732 727 726 731 736 735 734 740 745 752 749 742 742 748 767 773 770 769 770 774 775 778 780 781 783 783 784 785 786 788 789 790 791 792 793 793 794 795 796 798 799 801 802 803 804 805 806 807 808 809 810 811 811 812 813 814 815 816 817 817 818 819 820 820 821 822 822 822 822 823 823 824 824 825 826 827 827 828 828 829 830 831 832 833 834
766 762 765 770 763 759 756 751 742 738 731 724 725 724 728 732 733 731 734 746 748 748 743 738 739 750 767 771 772 771 771 774 776 779 780 782 784 784 785 786 786 787 789 790 791 792 793 794 795 796 797 799 800 802 803 804 805 806 807 807 809 809 810 811 811 812 813 814 815 816 817 818 818 819 820 821 821 822 822 822 823 823 824 824 825 826 827 827 828 828 829 829 830 831 832 833 834
761 758 762 768 765 759 754 749 742 740 729 718 720 724 731 731 729 733 737 746 747 740 740 742 742 754 764 768 774 770 770 774 776 779 780 783 784 785 786 786 787 788 789 790 791 792 793 795 796 797 798 800 801 802 803 804 805 806 806 808 808 809 810 811 812 813 813 815 815 816 817 818 819 819 820 821 822 822 822 823 823 824 824 824 825 826 827 828 829 829 829 830 831 832 832 833 834
756 757 764 770 769 763 754 744 742 744 730 718 722 726 736 734 729 736 734 738 747 741 744 750 747 752 755 758 766 765 770 775 777 780 781 783 783 785 786 787 789 789 790 790 791 792 793 795 796 798 799 800 801 802 803 804 805 805 806 808 808 809 810 810 811 813 814 815 815 816 817 818 818 819 820 821 822 823 823 823 823 824 824 824 825 826 827 828 829 829 830 830 831 832 833 833 834
753 760 771 773 769 764 753 743 742 743 732 728 730 730 740 742 735 735 732 736 748 747 747 751 750 752 754 757 763 766 772 775 777 780 780 782 782 784 786 788 789 790 792 791 792 793 794 795 796 798 799 800 801 802 803 804 805 805 806 807 808 809 810 811 811 812 814 815 816 816 817 818 818 819 820 821 822 823 823 824 824 825 825 825 825 826 827 828 830 830 830 831 831 832 833 833 834
757 765 774 774 767 757 745 737 733 732 733 737 735 733 739 745 742 737 739 745 749 751 752 754 754 757 759 762 766 769 773 775 777 779 779 781 780 782 784 787 789 790 792 793 794 794 795 796 796 798 799 800 801 802 803 802 803 804 805 806 808 809 810 811 811 813 814 815 816 816 817 818 819 819 820 821 822 823 824 824 824 825 826 826 826 826 828 829 830 831 831 831 832 832 832 833 833
760 765 771 770 759 746 734 729 729 730 734 737 735 735 738 741 742 742 749 753 751 757 759 758 761 763 764 765 769 771 773 775 777 778 778 779 780 782 784 787 789 790 792 794 795 796 796 797 797 798 798 800 800 801 802 802 803 803 805 806 807 809 810 811 812 814 814 815 816 816 817 817 818 819 820 821 823 824 824 824 825 826 827 827 827 827 828 829 830 831 832 832 832 832 832 832 833
759 762 769 762 749 741 729 726 733 733 733 735 737 737 738 739 740 743 752 752 753 759 759 761 765 766 766 767 769 772 774 775 777 778 778 780 782 784 786 788 790 791 793 794 796 797 797 798 798 799 799 800 799 800 802 802 803 803 804 805 807 808 809 811 812 814 815 816 816 816 817 818 818 819 820 822 823 824 824 825 825 826 827 827 828 828 829 829 830 831 832 832 832 832 831 831 832
756 759 764 751 740 742 732 728 734 735 735 737 740 740 741 739 738 744 750 753 756 755 751 755 760 762 765 767 769 772 774 775 777 778 780 782 784 785 787 789 790 791 793 795 796 797 798 798 799 799 800 800 799 800 800 801 802 803 804 805 806 808 809 810 812 814 815 816 816 817 817 818 819 819 820 822 823 824 824 825 825 826 827 828 828 828 829 829 830 831 831 832 832 831 831 831 832
755 755 754 745 739 743 736 732 735 736 738 740 743 745 742 739 740 745 748 753 756 748 741 744 749 755 763 767 770 772 774 776 777 779 781 783 785 787 789 790 791 792 793 795 796 797 798 798 799 800 800 800 800 800 800 801 801 802 803 804 806 807 809 810 812 813 813 814 815 815 816 817 817 817 819 820 822 824 825 825 825 826 827 828 828 829 829 829 830 831 831 831 831 831 830 831 833
756 753 746 743 740 744 742 739 741 742 744 744 744 743 739 743 747 745 746 750 750 744 739 740 745 753 762 766 770 772 774 776 778 780 783 785 786 788 789 790 791 792 793 795 796 797 798 798 799 800 800 800 800 800 800 801 802 803 803 804 806 807 809 810 811 811 812 813 813 813 814 815 815 815 818 820 821 822 823 824 824 826 827 827 828 829 830 829 830 831 831 831 831 830 830 831 833
753 753 745 742 740 743 745 745 747 747 747 743 741 742 742 749 751 747 747 746 746 745 744 745 749 755 763 767 770 772 774 776 778 781 783 785 787 788 789 790 791 792 794 796 797 798 798 799 800 800 801 801 800 801 801 802 803 804 804 805 806 807 808 809 810 810 811 812 812 812 813 813 812 814 816 820 822 821 821 823 825 826 826 827 827 829 829 830 830 831 830 830 830 830 830 832 833
750 752 746 741 741 742 744 748 750 748 746 742 743 749 748 748 749 748 748 744 745 747 748 749 753 759 765 768 770 772 774 776 778 780 783 785 787 788 790 791 792 793 795 796 797 798 799 799 800 801 801 801 801 801 802 802 803 804 805 806 806 807 808 809 809 810 811 811 811 811 813 812 812 813 816 820 823 822 821 823 825 825 826 826 827 828 829 829 830 831 830 830 830 829 830 831 832
748 749 745 741 745 744 745 749 750 749 747 746 751 755 751 745 747 753 748 742 744 748 750 752 756 762 766 768 770 772 774 776 778 781 783 786 788 789 790 791 793 794 795 796 798 798 799 800 801 801 801 801 802 802 802 803 803 804 805 805 806 807 808 808 809 810 811 811 811 812 812 812 812 814 817 820 822 821 821 823 825 825 825 826 827 828 829 829 830 831 830 830 830 830 830 831 831
743 745 743 743 747 744 746 751 748 749 749 748 754 758 751 744 751 761 751 741 744 749 752 752 756 763 766 768 770 771 774 776 778 781 784 786 788 789 790 791 793 794 796 797 798 799 800 800 801 801 801 801 802 803 803 803 804 804 805 806 806 807 808 808 809 810 811 811 812 812 812 812 813 813 816 819 821 821 821 823 824 824 824 825 826 827 829 829 829 830 830 831 830 830 830 830 831
742 745 745 746 748 746 748 751 748 749 751 749 752 756 751 746 752 759 749 741 745 751 754 753 757 761 764 768 770 771 773 776 779 781 784 786 787 788 789 791 793 794 796 797 798 799 800 801 801 802 801 801 802 803 803 804 804 805 805 806 807 808 808 809 809 810 810 811 812 811 811 811 812 813 815 818 819 819 819 821 822 821 822 824 826 826 827 828 829 830 830 831 830 830 830 830 830
745 746 753 752 749 752 751 750 748 750 752 746 751 762 759 753 752 751 744 741 746 752 754 754 756 760 763 767 769 771 773 776 779 781 783 785 786 788 789 791 793 794 796 797 798 799 800 801 802 802 802 802 803 803 804 804 805 805 806 806 807 808 809 809 809 809 809 811 811 810 809 809 810 812 814 816 818 818 818 820 820 820 822 824 826 826 826 826 827 829 830 830 830 830 830 830 830
750 748 755 756 755 756 749 746 748 750 751 744 754 774 768 753 747 744 741 742 749 754 754 754 756 758 762 766 769 770 772 775 777 780 783 783 785 787 789 791 792 794 795 797 799 800 801 802 802 803 803 803 803 804 804 804 805 805 806 806 807 808 809 809 809 808 808 809 809 809 808 808 809 811 812 814 816 818 819 821 821 821 822 824 826 827 827 826 825 827 829 830 830 830 829 830 830
753 753 755 757 762 757 741 742 748 750 750 744 757 777 768 750 741 736 737 742 750 755 754 754 755 758 761 765 768 769 771 774 775 778 781 782 784 786 788 791 792 793 795 797 799 800 801 802 803 803 803 804 804 804 804 805 805 805 806 806 807 807 808 809 809 809 809 809 809 808 807 807 809 811 812 812 814 817 819 821 821 821 821 824 826 827 827 826 825 826 828 829 830 829 829 829 830
753 761 763 757 761 754 735 736 744 750 750 745 758 774 765 749 735 727 734 743 749 753 754 753 755 757 760 763 766 768 769 772 773 776 779 781 783 786 788 790 791 793 795 797 798 799 801 802 803 803 804 804 805 805 805 806 806 806 807 807 807 808 808 809 810 811 811 811 811 809 808 807 807 810 812 812 814 816 818 819 820 820 821 822 823 824 825 826 826 825 826 829 830 829 829 829 829
753 762 767 757 756 753 740 738 740 743 748 747 756 766 760 747 735 731 737 744 748 752 752 753 755 756 759 762 764 766 768 770 771 774 777 779 782 785 787 789 790 792 794 796 798 799 800 802 803 803 804 805 805 806 806 806 807 807 807 808 808 808 809 810 811 812 812 812 813 811 810 808 807 808 810 812 813 814 816 817 818 818 819 820 821 822 823 825 825 824 824 828 830 829 829 828 828
756 756 761 755 750 750 745 743 739 738 746 749 752 760 758 748 742 742 743 744 749 752 752 752 754 756 758 760 762 764 766 768 770 771 774 777 780 784 787 789 790 792 794 796 797 799 800 801 802 803 804 805 805 806 806 807 807 807 807 808 809 809 810 810 811 812 813 813 814 813 812 812 810 809 810 811 812 813 814 815 816 816 818 819 820 821 822 823 824 823 823 826 827 828 827 827 827
759 757 758 756 751 749 745 742 738 738 747 751 752 757 756 748 744 744 744 745 749 751 751 751 752 755 758 759 761 762 763 765 766 768 772 776 779 782 786 788 790 791 793 795 797 798 799 801 802 803 804 804 805 805 806 806 807 807 808 808 809 810 810 811 812 812 813 814 814 814 814 814 813 812 811 811 812 813 813 814 814 815 816 817 818 819 821 822 823 822 823 825 826 827 827 826 826
759 758 756 756 752 748 741 738 737 738 748 754 755 757 753 750 746 742 741 744 749 751 750 751 751 754 757 759 760 759 761 762 762 764 769 773 777 780 784 787 789 791 792 794 796 797 798 800 801 802 803 804 804 804 805 806 807 808 809 809 810 810 811 811 812 813 813 814 814 815 815 815 814 814 813 812 812 812 813 813 813 814 815 816 817 818 820 821 821 820 821 823 825 826 826 826 826
759 758 757 753 751 746 738 739 740 739 750 754 752 755 753 749 746 741 739 742 748 751 751 751 751 752 755 757 758 758 759 758 757 760 765 769 774 777 781 786 788 790 792 793 794 796 797 798 800 801 802 803 803 804 804 805 806 807 808 809 809 810 811 811 811 813 813 814 814 815 815 815 815 814 814 813 813 813 813 813 813 814 814 815 816 817 818 819 820 819 819 821 823 825 825 826 826
759 762 762 757 754 750 742 745 746 743 755 757 751 755 755 750 747 741 738 741 747 749 751 752 751 751 752 753 755 756 756 755 755 758 761 765 770 774 778 782 786 788 790 791 793 794 796 797 799 800 801 802 803 803 804 805 806 807 808 808 809 810 811 811 812 812 813 813 814 814 815 815 815 815 815 814 813 813 813 813 813 813 813 813 814 815 817 818 818 818 818 818 820 823 824 825 825
764 763 764 764 757 752 747 745 744 745 757 760 755 760 758 750 746 742 738 738 740 743 746 749 749 751 751 752 753 754 755 755 755 757 759 762 767 772 776 779 783 786 788 790 791 793 794 796 797 798 800 801 802 803 804 805 806 806 807 808 809 809 810 811 811 811 812 813 813 814 814 815 815 815 815 814 814 813 812 812 812 812 812 812 813 814 815 816 817 817 817 818 819 821 823 823 823
767 766 768 767 757 756 757 752 749 748 754 759 759 762 760 752 746 741 737 735 735 737 741 745 747 749 749 749 750 752 754 755 755 755 756 759 764 769 773 776 780 784 786 788 789 791 793 794 796 797 799 800 801 802 803 804 805 806 807 807 808 809 809 810 810 811 812 812 813 813 814 814 814 814 814 814 813 813 813 812 812 811 811 812 812 813 813 814 814 814 814 816 818 820 820 821 821
767 766 768 765 757 756 758 757 755 754 756 758 763 771 765 754 751 744 736 735 736 736 738 743 745 746 747 748 748 749 751 752 753 754 754 756 761 766 771 774 778 781 784 785 787 789 791 793 794 796 797 799 800 801 802 802 804 805 806 807 807 808 808 809 810 810 811 811 812 812 813 813 813 813 813 813 813 813 813 812 812 812 811 811 811 812 812 813 813 813 813 814 817 819 818 819 820
771 763 760 761 758 756 757 758 759 767 770 757 761 783 775 751 747 745 737 737 739 737 737 740 742 743 745 747 747 747 748 749 751 752 753 755 759 765 769 773 776 779 781 783 785 786 789 791 793 794 796 797 798 799 801 801 802 804 804 805 806 806 807 808 808 809 810 810 811 811 812 812 812 813 813 813 813 813 813 813 812 812 812 812 812 812 812 812 812 813 813 814 816 817 817 818 818
774 762 752 751 752 755 760 761 764 776 775 753 753 780 779 756 743 737 734 737 737 737 738 737 737 739 740 742 744 745 747 748 750 751 751 754 758 763 767 770 773 776 779 781 783 784 787 789 791 793 794 796 797 798 799 800 801 802 803 804 804 805 805 806 807 808 808 809 809 810 811 811 811 812 812 812 813 813 813 813 813 813 812 812 812 812 812 812 812 813 813 814 815 815 816 816 815
770 758 752 751 749 754 760 764 768 769 765 756 753 764 774 768 748 732 730 735 735 734 736 736 735 736 735 736 739 742 744 746 748 751 751 753 757 760 764 768 771 774 777 778 780 782 785 787 789 791 793 794 795 797 798 799 800 801 802 803 803 804 804 805 806 807 807 808 808 809 809 810 810 810 811 811 812 812 812 813 813 813 812 812 812 812 812 812 812 812 813 813 813 814 814 813 813
761 751 752 753 751 753 756 763 767 762 766 772 760 755 771 772 749 733 730 731 732 733 735 735 735 735 734 734 736 737 739 742 745 749 750 751 755 758 762 765 769 772 774 776 778 780 783 785 788 789 791 793 794 795 796 798 799 800 801 802 802 803 803 804 805 805 806 807 807 808 808 809 809 809 810 810 810 811 811 811 812 812 812 812 812 812 812 812 811 811 811 811 811 811 812 811 811
753 748 752 754 753 755 758 764 766 763 772 778 761 752 766 767 745 735 734 729 729 732 731 731 731 733 733 732 734 735 736 739 742 745 748 749 752 756 760 763 767 769 772 774 776 778 781 783 786 787 789 791 792 793 795 796 798 798 799 801 801 802 802 803 804 804 805 805 806 807 807 807 808 808 809 809 809 809 809 810 810 810 810 810 810 810 810 810 810 810 809 809 809 809 809 809 808
749 753 758 760 758 757 761 762 763 773 779 771 757 748 757 765 748 734 731 725 724 728 727 726 728 731 732 731 732 733 734 736 739 742 746 748 750 754 758 761 764 767 770 773 775 776 779 781 783 786 788 790 791 792 794 795 796 797 798 799 800 800 801 802 802 803 803 804 805 805 806 806 807 807 807 808 808 808 808 808 808 809 809 809 809 809 809 809 809 808 808 807 807 807 806 806 805
750 757 762 767 766 761 767 767 768 786 787 766 752 744 752 767 754 733 726 720 720 725 724 724 726 727 729 729 729 730 732 733 735 740 743 746 749 752 756 759 762 766 768 770 773 775 777 779 781 784 786 788 789 790 792 793 795 796 797 798 798 799 800 800 801 802 802 803 804 804 805 805 806 806 806 806 807 807 807 807 807 807 807 807 807 807 807 807 806 806 806 805 805 804 804 803 803
754 760 766 778 779 774 779 779 777 784 779 760 748 746 752 756 742 729 726 722 720 722 722 723 722 723 725 727 727 728 730 731 732 736 740 743 747 751 755 758 761 763 766 768 771 773 775 777 779 782 784 786 787 789 790 792 793 794 795 796 797 798 799 799 800 800 801 802 803 803 803 804 805 805 805 805 805 806 806 806 806 806 805 805 805 805 805 804 804 804 803 803 802 802 802 801 800
758 762 768 779 784 787 789 782 777 776 769 756 748 753 761 753 736 727 726 722 717 716 720 723 721 720 723 724 725 727 728 730 730 733 736 740 744 749 753 757 760 762 765 767 770 772 774 776 778 780 782 783 785 787 789 790 791 793 794 795 796 796 797 798 799 799 800 801 801 802 802 803 803 804 804 804 804 804 804 804 804 804 804 803 803 803 802 802 802 801 801 800 800 799 799 799 798
751 749 756 768 772 780 786 780 778 775 768 761 755 759 766 757 739 725 721 719 715 713 714 719 721 719 721 723 725 726 727 729 730 730 732 735 740 745 750 754 758 761 764 766 768 771 773 774 776 778 779 781 783 785 787 788 790 791 792 793 794 795 796 797 797 798 799 800 800 801 801 801 802 802 802 803 803 803 803 802 802 802 802 801 801 800 800 799 799 799 798 798 797 797 796 796 796
746 738 749 762 759 764 773 772 770 771 773 769 762 759 752 742 732 721 719 719 716 715 713 716 722 721 722 726 726 727 727 727 729 730 730 733 737 743 747 751 755 758 762 764 766 768 770 772 774 775 777 779 781 783 785 787 788 790 791 792 793 794 795 795 796 797 798 798 799 799 800 800 800 801 801 801 801 801 801 801 800 800 800 799 799 798 798 797 797 797 796 795 795 794 794 793 793
747 745 751 748 741 751 768 774 768 771 783 774 761 759 747 738 734 722 720 723 719 718 716 715 720 721 724 728 728 729 728 726 728 729 730 733 738 742 746 750 753 756 760 762 764 766 767 769 771 773 775 777 779 781 783 785 786 788 789 790 791 792 793 794 795 796 797 797 798 798 798 799 799 799 799 800 800 800 799 799 799 798 798 797 797 796 796 796 795 795 794 794 793 792 792 791 790
745 751 745 736 737 744 757 774 776 780 788 774 759 762 757 753 748 727 719 724 721 719 717 716 719 721 723 726 728 730 729 728 728 728 730 732 736 740 744 748 751 754 757 760 762 764 765 767 769 771 773 775 777 779 781 783 784 786 787 789 790 791 792 793 794 795 796 796 796 797 797 797 798 798 798 798 798 798 798 797 797 796 796 795 795 794 794 794 793 793 792 792 791 790 790 789 788
737 740 734 740 757 759 757 771 780 785 789 777 764 761 756 752 745 730 723 723 720 720 719 718 720 721 722 723 725 727 728 729 730 729 730 731 733 737 740 745 748 751 754 757 759 762 763 765 767 768 770 772 774 776 778 781 782 784 786 787 789 790 791 792 793 794 794 795 795 795 796 796 796 797 797 797 797 796 796 796 795 795 794 794 793 793 792 792 791 791 790 789 789 789 788 786 786
734 736 735 740 753 758 756 760 767 775 782 778 771 765 757 744 731 725 724 719 719 722 721 721 721 720 721 722 723 725 726 728 729 730 730 730 731 734 737 741 745 748 752 754 756 759 761 763 764 766 768 770 772 774 776 778 780 782 784 785 787 788 789 791 791 792 793 793 794 794 795 795 795 795 795 795 795 794 794 794 794 793 792 792 791 791 790 790 789 789 788 787 787 787 786 785 784
743 747 749 748 749 752 758 758 754 760 772 776 774 770 755 734 721 721 721 719 720 721 720 722 721 720 721 721 722 723 724 726 728 729 730 729 730 732 735 739 742 745 748 750 753 756 758 760 762 764 766 768 770 772 774 776 778 780 782 783 785 786 788 789 790 791 791 792 793 793 794 794 794 794 794 794 793 793 793 792 792 792 791 790 790 789 789 788 788 787 786 786 785 785 784 783 782
743 749 750 751 753 761 777 780 764 758 767 771 774 777 758 730 720 722 721 722 723 721 722 724 723 724 725 724 726 725 723 724 726 729 730 729 730 732 734 736 739 742 744 747 750 753 756 758 760 762 764 765 767 769 772 774 776 778 780 781 783 785 786 788 789 790 790 791 792 792 793 793 793 793 793 792 792 792 791 791 790 790 789 789 788 787 787 786 786 785 784 784 783 783 782 781 780